Hovedside
METAR-TAF:

METAR-TAF

Lufthavner :

Leknes, Norge

Leknes lufthavn

breddegrad: 68-09N, lengdegrad: 013-37E, høyde over havet: 2 m

Gjeldene værobservasjon

Denne rapporten ble laget for 26 minutter siden, klokken 07:20 UTC
Vind 7 kt fra Øst-sørøst
Temperatur 2°C
Luftfuktighet 69%
Trykk 1019 hPa
Sikt 10 km eller mer
ingen skyer under 1500 m og ingen bygeskyer

METAR: ENLK 240720Z 11007KT CAVOK 02/M03 Q1019

Tid: 09:46 (07:46 UTC)


TAF: fraværende

Værobservasjoner og værvarsel for over 4000 flyplasser (METAR- og TAF-rapporter).

Tilgjengelige stasjoner er representert av de røde og gule prikkene på kartet.

Hold musepekeren over prikken for å se navnet på stasjonen.

Klikk så for å se værobservasjoner og -varsler.

For å forandre kartet kan du klikke på den grønne knappen med svart kryss for å zoome inn, på den grønne knappen med strek for å zoome ut, eller på de grønne pilene for å se tilstøtende kart.


METAR-TAF: